sat.trackr.live / text

‹ back to catalog

KUIPER-00613

NORAD 69293 · 2026-118AC

PAYLOAD ACTIVE UNKNOWN

§ Identity

Operator
Country
US
Launch date
2026-05-29
Launch site
AFETR
Launch vehicle
Mass (kg)
RCS (m²)

External: N2YO · Heavens-Above · Gunter

§ Orbital elements

Epoch: 2026-09-20T04:49:36.054336Z

Period
97.30 min
Inclination
51.9035°
Eccentricity
0.0000305
Mean motion
14.79927195 rev/d
Perigee alt
629.3 km
Apogee alt
629.8 km
Semi-major
7,007.7 km
B*
2.7754e-4
RAAN
343.0157°
Arg perigee
85.0621°
Mean anomaly
275.0376°
Rev number
1,819

§ Raw data

KUIPER-006131 69293U 26118AC  26263.20111174  .00001895  00000+0  27754-3 0  99932 69293  51.9035 343.0157 0000305  85.0621 275.0376 14.79927195 18190

JSON: /api/v1/satellites/69293 · /tle

For live sub-satellite position, see the globe view (requires WebGL).

§ Visibility from observer

Set your observer location to see the next 7 days of passes ≥ 10°. The values pass through the URL so the page stays shareable.

No JS? Fill the form by hand. The geolocation button needs JavaScript.